Lexington Weather

Lexington, Massachusetts, USA

33°F
12/8/2019 3:26pm 
  • Lexington Conditions: Mostly cloudy
  • Temperature: 33.4°F / 0.8°CColder 1.3°F than last hour.
  • Dew Point: 17.2°FIncreased 3.2°Fsince last hour.
  • Relative Humidity: 51%Increased 9.0% since last hour.
  • Wind: Wind from S S Calm, 10-min avg: 2 mph, gust: 4 mph
  • Barometer: 30.40 in Steady
  • Visibility: 10 miles
  • Snow Today: 0.0 in
  •   

Regional Weather Roundup
for Boston / Norton, MA

        
000
ASUS41 KBOX 071600
RWRBOX

REGIONAL WEATHER ROUNDUP
NATIONAL WEATHER SERVICE BOSTON/NORTON MA
1100 AM EST SAT DEC 07 2019

NOTE:  "FAIR" INDICATES FEW OR NO CLOUDS BELOW 12,000 FEET WITH NO 
SIGNIFICANT WEATHER AND/OR OBSTRUCTIONS TO VISIBILITY.

MAZALL-071700-
EASTERN MASSACHUSETTS
  
CITY           SKY/WX    TMP DP  RH WIND       PRES   REMARKS
BOSTON         FAIR      32  13  45 NW16      30.31S WCI  21          
BEVERLY        FAIR      29  14  53 NW10G17   30.29S WCI  20          
LAWRENCE       FAIR      26  13  57 NW10      30.32S WCI  16          
BEDFORD        FAIR      28  14  55 NW13      30.30S WCI  17          
BLUE HILL        N/A     27  17  66 NW12      30.26S WCI  17          
NORWOOD        FAIR      33  16  49 NW12      30.31S WCI  24          
MARSHFIELD     NOT AVBL                                               
PLYMOUTH       FAIR      30  16  56 W13       30.29S WCI  20          
TAUNTON        FAIR      33  16  49 NW8       30.30F WCI  26          
NEW BEDFORD    FAIR      32  16  51 NW6       30.30S WCI  26          
$$

MAZALL-071700-
CAPE COD AND THE ISLANDS
  
CITY           SKY/WX    TMP DP  RH WIND       PRES   REMARKS
FALMOUTH       NOT AVBL                                               
HYANNIS        NOT AVBL                                               
CHATHAM        FAIR      34  20  56 NW10G21   30.28S WCI  26          
PROVINCETOWN   PTSUNNY   31  22  69 NW10      30.30S WCI  22          
NANTUCKET      FAIR      35  23  61 N16G23    30.29R WCI  25          
MARTHAS VNYRD  FAIR      34  18  52 NW13      30.30S WCI  25          
$$
 
MAZALL-071700-
CENTRAL AND WESTERN MASSACHUSETTS
  
CITY           SKY/WX    TMP DP  RH WIND       PRES   REMARKS
WORCESTER      FAIR      25  14  63 W14       30.26S WCI  13          
FITCHBURG      FAIR      28  14  55 NW12      30.31S WCI  18          
ORANGE         FAIR      24  19  81 VRB5      30.31S WCI  18          
SPRINGFIELD    MOSUNNY   27  16  61 W16       30.31F WCI  15          
WESTFIELD      PTSUNNY   29  16  58 NW10G21   30.33S WCI  20          
NORTH ADAMS    PTSUNNY   26  15  63 W10       30.30F WCI  16          
PITTSFIELD     FAIR      24  15  68 W14G20    30.27S WCI  12          
$$
 
RIZALL-071700-
RHODE ISLAND
  
CITY           SKY/WX    TMP DP  RH WIND       PRES   REMARKS
PROVIDENCE     FAIR      34  16  47 NW15      30.32S WCI  24          
NEWPORT        FAIR      33  17  51 NW9       30.30F WCI  25          
BLOCK ISLAND   FAIR      34  16  47 NW14G23   30.32F WCI  25          
SMITHFIELD     FAIR      30  15  53 N12G21    30.29S WCI  20          
WESTERLY       FAIR      36  15  42 NW12G22   30.33S WCI  28          
$$
 
CTZALL-071700-
CONNECTICUT
  
CITY           SKY/WX    TMP DP  RH WIND       PRES   REMARKS
BRADLEY INTL   PTSUNNY   33  16  49 NW17G24   30.34S WCI  22          
HARTFORD       PTSUNNY   32  17  54 NW9       30.36S WCI  24          
BRIDGEPORT     FAIR      37  18  46 NW12G20   30.35F WCI  29          
DANBURY        PTSUNNY   32  18  56 NW9       30.35S WCI  24          
GROTON         NOT AVBL                                               
NEW HAVEN      FAIR      38  18  44 N14G22    30.34F WCI  30          
CHESTER        FAIR      34  16  47 NW14      30.32F WCI  24          
MERIDEN        FAIR      32  17  54 VRB7      30.35F WCI  26          
WILLIMANTIC    FAIR      31  17  56 NW10G22   30.34F WCI  22          
OXFORD         FAIR      30  19  63 NW12      30.32F WCI  20          
$$

MEZ002-015-021-024-NHZ003-005-008-011-012-014-VTZ005-008-071700-
NORTHERN NEW ENGLAND
  
CITY           SKY/WX    TMP DP  RH WIND       PRES   REMARKS
PORTLAND ME    FAIR      29  14  53 NW6       30.27F WCI  23          
BANGOR ME      FAIR      21  10  62 NW13      30.24S WCI   9          
CONCORD NH     FAIR      25  13  60 NW7       30.30S WCI  17          
MANCHESTER NH  FAIR      27  13  55 NW10      30.29S WCI  17          
NASHUA NH      FAIR      31  18  58 NW6       30.31F WCI  25          
PORTSMOUTH NH  SUNNY     28  13  53 NW9       30.27S WCI  19          
JAFFREY NH     FAIR      25  12  58 W7        30.25S WCI  17          
KEENE NH       FAIR      31  18  58 NW9       30.30F WCI  23          
BURLINGTON VT  FLURRIES  24  13  62 W10       30.32S WCI  14          
MT. WASHINGTON FOG        0   0 100 W35         N/A  VSB 1/8 WCI -28  
$$

NYZ052-076-071700-
EASTERN NEW YORK
  
CITY           SKY/WX    TMP DP  RH WIND       PRES   REMARKS
ALBANY         FAIR      29  15  56 NW16G23   30.36F WCI  17          
NEW YORK CITY  PTSUNNY   36  17  46 NW18G25   30.37R WCI  26          
$$
 
ANZALL-071700-
MARINE OBSERVATIONS
  
STATION/POSITION TIME  TEMP    WIND        PRES    VSBY  WAVE
                       AIR SEA DIR/SP/G                  HT/PER
                 (UTC) (F)     (DEG/KT/KT) (MB)    (MI)  (FT/S)
BOSTON BUOY      1450   30 47  320/ 17/ 21 1025.0          3/ 4
BUZZARDS BAY     1500   31     320/ 12/ 13 1026.9R
NANTUCKET SOUND  1540   31 42              1026.1
MASS BAY-STELLWA 1504   28 46  350/ 16/ 17 1023.9R  1 7/8  3/ 5
ISLE OF SHOALS   1500   26     310/ 13/ 14 1025.1R
S OF BLOCK IS    1530      52                N/A           4/ 5
$$

......................KEY.........................
  SKY/WX - SKY CONDITION/PRESENT WEATHER
  TMP    - TEMPERATURE IN FAHRENHEIT
  DWPT   - DEWPOINT IN FAHRENHEIT
  RH     - RELATIVE HUMIDITY IN PERCENT
  WIND   - DIRECTION AND SPEED IN MPH
  PRES   - MEAN SEA LEVEL PRESSURE IN INCHES OF HG
  WCI    - WIND CHILL INDEX
  VSB    - VISIBILITY IN MILES
  HX     - HEAT INDEX
  TC     - TEMPERATURE IN CELSIUS
  VRB    - VARIABLE WIND DIRECTION
  N/A    - NOT AVAILABLE
  
      

Other recent Regional Weather Roundups

Sun Dec 8, 3:10pm

Sun Dec 8, 3:01pm

Sun Dec 8, 2:10pm

Sun Dec 8, 2:01pm

Sun Dec 8, 1:10pm

Sun Dec 8, 1:00pm

Sun Dec 8, 12:10pm

Sun Dec 8, 12:01pm

Sun Dec 8, 11:10am

Sun Dec 8, 11:00am

Sun Dec 8, 10:10am

Sun Dec 8, 10:01am

Sun Dec 8, 9:10am

Sun Dec 8, 9:00am

Sun Dec 8, 8:10am

Sun Dec 8, 8:00am

Sun Dec 8, 7:10am

Sun Dec 8, 7:00am

Sun Dec 8, 6:10am

Sun Dec 8, 6:00am

Sun Dec 8, 5:10am

Sun Dec 8, 5:00am

Sun Dec 8, 4:10am

Sun Dec 8, 4:00am

Sun Dec 8, 3:10am

Sun Dec 8, 3:00am

Sun Dec 8, 2:10am

Sun Dec 8, 2:00am

Sun Dec 8, 1:10am

Sun Dec 8, 1:00am

Sun Dec 8, 12:10am

Sun Dec 8, 12:01am

Sat Dec 7, 11:10pm

Sat Dec 7, 11:00pm

Sat Dec 7, 10:10pm

Sat Dec 7, 10:00pm

Sat Dec 7, 9:10pm

Sat Dec 7, 9:00pm

Sat Dec 7, 8:10pm

Sat Dec 7, 8:00pm

Sat Dec 7, 7:10pm

Sat Dec 7, 7:00pm

Sat Dec 7, 6:10pm

Sat Dec 7, 6:00pm

Sat Dec 7, 5:10pm

Sat Dec 7, 5:00pm

Sat Dec 7, 4:10pm

Sat Dec 7, 4:00pm

Sat Dec 7, 3:10pm

Sat Dec 7, 3:00pm

Sat Dec 7, 2:10pm

Sat Dec 7, 2:01pm

Sat Dec 7, 1:10pm

Sat Dec 7, 1:00pm

Sat Dec 7, 12:10pm

Sat Dec 7, 12:01pm

Sat Dec 7, 11:10am

Sat Dec 7, 10:10am

Sat Dec 7, 10:01am

Sat Dec 7, 9:10am

Sat Dec 7, 9:00am

Sat Dec 7, 8:10am

Sat Dec 7, 8:00am

Sat Dec 7, 7:10am

Sat Dec 7, 7:00am

Sat Dec 7, 6:10am

Sat Dec 7, 6:00am

Sat Dec 7, 5:10am

Sat Dec 7, 5:00am

Sat Dec 7, 4:10am

Sat Dec 7, 4:00am

Sat Dec 7, 3:10am

Sat Dec 7, 3:00am

Sat Dec 7, 2:10am

Sat Dec 7, 2:01am

Sat Dec 7, 1:10am

Sat Dec 7, 1:00am

Sat Dec 7, 12:10am

Sat Dec 7, 12:01am

Fri Dec 6, 11:10pm

Fri Dec 6, 11:00pm

Fri Dec 6, 10:10pm

Fri Dec 6, 10:00pm

Fri Dec 6, 9:10pm

Fri Dec 6, 9:00pm

Fri Dec 6, 8:10pm

Fri Dec 6, 8:00pm

Fri Dec 6, 7:10pm

Fri Dec 6, 7:01pm

Fri Dec 6, 6:10pm

Fri Dec 6, 6:00pm

Fri Dec 6, 5:10pm

Fri Dec 6, 5:00pm

Fri Dec 6, 4:10pm

Fri Dec 6, 4:00pm

Fri Dec 6, 3:10pm

Fri Dec 6, 3:00pm

Fri Dec 6, 2:10pm

Fri Dec 6, 2:00pm

Fri Dec 6, 1:10pm

Fri Dec 6, 1:00pm

Fri Dec 6, 12:10pm

Fri Dec 6, 12:00pm

Fri Dec 6, 11:10am

Fri Dec 6, 11:00am

Fri Dec 6, 10:10am

Fri Dec 6, 10:00am

Fri Dec 6, 9:10am

Fri Dec 6, 9:00am

Fri Dec 6, 8:10am

Fri Dec 6, 8:00am

Fri Dec 6, 7:10am

Fri Dec 6, 7:00am

Fri Dec 6, 6:10am

Fri Dec 6, 6:01am

Fri Dec 6, 5:10am

Fri Dec 6, 5:00am

Fri Dec 6, 4:10am

Fri Dec 6, 4:00am

Fri Dec 6, 3:10am

Fri Dec 6, 3:00am

Fri Dec 6, 2:10am

Fri Dec 6, 2:00am

Fri Dec 6, 1:10am

Fri Dec 6, 1:00am

Fri Dec 6, 12:10am

Fri Dec 6, 12:00am

Thu Dec 5, 11:10pm

Thu Dec 5, 11:00pm

Thu Dec 5, 10:10pm

Thu Dec 5, 10:01pm

Thu Dec 5, 9:10pm

Thu Dec 5, 9:01pm

Thu Dec 5, 8:10pm

Thu Dec 5, 8:00pm

Thu Dec 5, 7:10pm

Thu Dec 5, 7:00pm

Thu Dec 5, 6:10pm

Thu Dec 5, 6:00pm

Thu Dec 5, 5:10pm

Thu Dec 5, 5:00pm

Thu Dec 5, 4:10pm

Thu Dec 5, 4:00pm

Meta data:

ID: 9522e26d-969a-4cfe-8988-2071ea2b9447
Link: https://api.weather.gov/products/9522e26d-969a-4cfe-8988-2071ea2b9447